This demonstration page uses our WeatherBlox Daily Observations layout. Learn more.

Left ArrowRight Arrow

38.20091, -84.87328

Hourly Observations for July 8, 2020

Temp ( °F °C ) Dew Point ( °F °C ) Humidity (%) Winds ( mph kmh ) Pressure ( in mb ) Visibility ( mi km ) Precip ( " mm )
12:53 am 00:53 Clear 78 25.6 67 19.4 69 69 Calm 29.95 1014 10 16 0.00 0.00
1:53 am 01:53 Clear 75 23.9 67 19.4 76 76 Calm 29.95 1014 10 16 0.00 0.00
2:53 am 02:53 Clear 72 22.2 67 19.4 84 84 Calm 29.94 1014 10 16 0.00 0.00
3:53 am 03:53 Clear 72 22.2 67 19.4 84 84 Calm 29.93 1013 10 16 0.00 0.00
4:53 am 04:53 Clear 71 21.7 67 19.4 87 87 Calm 29.92 1013 10 16 0.00 0.00
5:53 am 05:53 Clear 71 21.7 66 18.9 84 84 Calm 29.92 1013 10 16 0.00 0.00
6:53 am 06:53 Sunny 70 21.1 66 18.9 87 87 Calm 29.93 1014 10 16 0.00 0.00
7:53 am 07:53 Sunny 75 23.9 67 19.4 76 76 Calm 29.95 1014 10 16 0.00 0.00
8:53 am 08:53 Sunny 81 27.2 68 20 65 65 Calm 29.96 1015 10 16 0.00 0.00
9:53 am 09:53 Sunny 84 28.9 68 20 59 59 Calm 29.97 1015 10 16 0.00 0.00
10:53 am 10:53 Sunny 89 31.7 71 21.7 55 55 VRB 3 6 29.96 1015 10 16 0.00 0.00
11:53 am 11:53 Mostly Sunny 92 33.3 70 21.1 49 49 E 7 11 29.96 1015 10 16 0.00 0.00
12:48 pm 12:48 Partly Cloudy with Nearby Thunderstorms 90 32 70 21 52 52 NNW 6 9 29.93 1014 10 16 0.00 0.00
12:53 pm 12:53 Mostly Cloudy with Nearby Thunderstorms 90 32.2 69 20.6 50 50 VRB 3 6 29.94 1014 10 16 0.00 0.00
1:41 pm 13:41 Partly Cloudy with Thunderstorms 87 30.6 66 18.9 50 50 ENE 13 20 29.93 1014 10 16 0.00 0.00
1:53 pm 13:53 Mostly Cloudy with Thunderstorms 85 29.4 68 20 57 57 Calm 29.95 1014 10 16 0.00 0.00
2:33 pm 14:33 Mostly Cloudy with Nearby Thunderstorms 76 24.4 66 18.9 72 72 WSW 7 11 29.93 1014 10 16 0.00 0.00
2:48 pm 14:48 Mostly Cloudy 77 25 66 19 69 69 Calm 29.93 1013 10 16 0.00 0.00
2:53 pm 14:53 Mostly Cloudy 77 25 67 19.4 71 71 Calm 29.94 1014 10 16 0.00 0.00
3:53 pm 15:53 Sunny 83 28.3 70 21.1 65 65 Calm 29.91 1013 10 16 0.00 0.00
4:53 pm 16:53 Sunny 87 30.6 72 22.2 61 61 WNW 5 7 29.90 1012 10 16 0.00 0.00
5:53 pm 17:53 Sunny 84 28.9 72 22.2 67 67 WNW 5 7 29.89 1012 10 16 0.00 0.00
6:53 pm 18:53 Sunny 87 30.6 73 22.8 63 63 NW 5 7 29.87 1012 10 16 0.00 0.00
7:53 pm 19:53 Sunny 85 29.4 72 22.2 65 65 NNW 7 11 29.86 1011 10 16 0.00 0.00
8:53 pm 20:53 Sunny 81 27.2 72 22.2 74 74 NNW 6 9 29.88 1012 10 16 0.00 0.00
9:53 pm 21:53 Clear 80 26.7 71 21.7 74 74 Calm 29.89 1012 10 16 0.00 0.00
10:53 pm 22:53 Clear 75 23.9 70 21.1 84 84 Calm 29.90 1013 10 16 0.00 0.00
11:53 pm 23:53 Clear 75 23.9 70 21.1 84 84 Calm 29.91 1013 10 16 0.00 0.00

Powered by AerisWeather